Regional Weather Roundup
Issued by NWS

Home | Current Version | Previous Version | Text Only | Print | Product List | Glossary Off
Versions: 1 2 3 4 5 6 7 8 9 10 11 12 13 14 15 16 17 18 19 20 21 22 23 24 25 26 27 28 29 30 31 32 33 34 35 36 37 38 39 40 41 42 43 44 45 46 47 48 49 50

000
ASUS43 KOAX 201302
RWRNE

WEATHER ROUNDUP FOR NEBRASKA
NATIONAL WEATHER SERVICE OMAHA NE
800 AM CDT MON OCT 20 2014

NOTES: SATELLITE DATA IS BEING USED TO AUGMENT CLOUD COVER ABOVE
       12000 FEET.
       "FAIR" INDICATES FEW OR NO CLOUDS BELOW 12,000 FEET WITH NO
       SIGNIFICANT WEATHER AND/OR OBSTRUCTIONS TO VISIBILITY.

  * THESE STATIONS DO NOT REPORT WEATHER SUCH AS RAIN...SNOW OR FOG.

NEZ001>004-019>022-054>056-201400-
NEBRASKA PANHANDLE

CITY           SKY/WX    TMP DP  RH WIND       PRES   REMARKS
SCOTTSBLUFF    PTCLDY    37  33  85 E3        30.11S
ALLIANCE       CLEAR     28  26  92 W7        30.11S WCI  21
CHADRON        CLEAR     32  30  92 CALM      30.06F
KIMBALL        CLEAR     41  36  81 SW7       30.13S
SIDNEY         CLEAR     38  34  85 SW8       30.13S WCI  32
$$

NEZ057>060-069>072-079>082-201400-
SOUTHWEST NEBRASKA

CITY           SKY/WX    TMP DP  RH WIND       PRES   REMARKS
NORTH PLATTE   CLEAR     32  31  96 NW5       30.11S WCI  27
IMPERIAL       CLEAR     38  32  79 W5        30.13R WCI  34
LEXINGTON      CLEAR     38  36  92 W6        30.10S WCI  33
MCCOOK         CLEAR     38  36  92 W6        30.11R WCI  33
OGALLALA       CLEAR     33  32  95 W3        30.12S
$$

NEZ005>010-023>029-035>040-094-201400-
NORTH CENTRAL NEBRASKA

CITY           SKY/WX    TMP DP  RH WIND       PRES   REMARKS
VALENTINE      CLEAR     31  29  92 W5        30.11S WCI  26
AINSWORTH      CLEAR     37  33  87 CALM      30.10S
BROKEN BOW     CLEAR     35  32  88 CALM      30.09S
O`NEILL        CLEAR     40  37  90 NW3       30.10R
ORD            CLEAR     37  35  92 NW7       30.09R WCI  32
THEDFORD       CLEAR     37  34  91 CALM      30.12S
$$

NEZ041-046>049-061>064-073>077-083>087-201400-
SOUTH CENTRAL NEBRASKA

CITY           SKY/WX    TMP DP  RH WIND       PRES   REMARKS
GRAND ISLAND   CLEAR     40  37  89 NW7       30.09R
AURORA         CLEAR     41  38  90 NW6       30.08R
HASTINGS       CLEAR     42  38  85 N5        30.08R
HEBRON         CLEAR     44  41  89 CALM      30.06R
HOLDREGE       CLEAR     41  38  88 CALM      30.09R
KEARNEY *      CLEAR     43  37  81 W9        30.09S
YORK           CLEAR     41  37  87 N12       30.08R
$$

NEZ011>018-030>034-042>045-201400-
NORTHEAST NEBRASKA

CITY           SKY/WX    TMP DP  RH WIND       PRES   REMARKS
NORFOLK        CLEAR     40  37  89 CALM      30.09R
ALBION         CLEAR     40  35  84 NW5       30.09R
BLAIR          CLEAR     49  42  79 N8        30.05R
COLUMBUS *     CLEAR     45  37  76 NW5       30.09R
FREMONT        CLEAR     43  40  90 W5        30.07R
TEKAMAH        CLEAR     43  39  86 N6        30.06R
WAYNE          CLEAR     37  34  92 CALM      30.09R
$$

NEZ050>053-065>068-078-088>093-201400-
SOUTHEAST NEBRASKA

CITY           SKY/WX    TMP DP  RH WIND       PRES   REMARKS
LINCOLN        CLEAR     42  40  92 N5        30.08R
OMAHA EPPLEY   CLEAR     45  42  89 N7        30.07R
BEATRICE       CLEAR     39  38  98 CALM      30.05R
FALLS CITY     CLEAR     48  46  93 NW7       30.02R
NEBRASKA CITY  CLEAR     48  44  85 N7        30.04R
PLATTSMOUTH    CLEAR     46  44  90 NW5       30.05R
$$

NEZ044-045-051>053-067-201400-
OMAHA AREA

CITY           SKY/WX    TMP DP  RH WIND       PRES   REMARKS
OMAHA EPPLEY   CLEAR     45  42  89 N7        30.07R
BLAIR          CLEAR     49  42  79 N8        30.05R
FREMONT        CLEAR     43  40  90 W5        30.07R
MILLARD        CLEAR     45  43  93 CALM      30.06R
OFFUTT AFB     CLEAR     43  43 100 W5        30.05R
PLATTSMOUTH    CLEAR     46  44  90 NW5       30.05R
WAHOO          FAIR      46  40  79 NW6       30.07R
$$


USA.gov is the U.S. government's official web portal to all federal, state and local government web resources and services.